The Dalles, WA

1:16 PM PST on December 09, 2019 (GMT -0800)
Columbia Gorge Regional-The Dalles

Weather History for KDLS - October, 2019

Change the Weather History Date:

Tuesday, October 8, 2019

  Actual Average Record
Temperature  
Mean Temperature 53 °F -  
Max Temperature 63 °F 72 °F 87 °F (1988)
Min Temperature 43 °F 43 °F 30 °F (1985)
Degree Days  
Heating Degree Days 12    
Growing Degree Days 3 (Base 50)    
Moisture  
Dew Point 40 °F    
Average Humidity 60    
Maximum Humidity 78    
Minimum Humidity 46    
Precipitation  
Precipitation 0.00 in - - ()
Sea Level Pressure  
Sea Level Pressure 29.92 in    
Wind  
Wind Speed 15 mph (WNW)    
Max Wind Speed 25 mph    
Max Gust Speed 31 mph    
Visibility 10 miles    
Events      
Averages and records for this station are not official NWS values.
T = Trace of Precipitation, MM = Missing Value Source: NWS Daily Summary

Daily Weather History Graph

Daily Weather History Graph

Search for Another Location

Airport or City:

Astronomy

Oct. 08, 2019 Rise Set
Actual Time 7:11 AM PDT 6:31 PM PDT
Civil Twilight 6:42 AM PDT 7:01 PM PDT
Nautical Twilight 6:07 AM PDT 7:35 PM PDT
Astronomical Twilight 5:33 AM PDT 8:10 PM PDT
Moon 4:51 PM PDT (10/8) 1:46 AM PDT (10/8)
Length of Visible Light 12h 19m
Length of Day
11h 20m
Waxing Gibbous, 78% of the Moon is Illuminated
Oct 8
Waxing Gibbous
Oct 13
Full
Oct 21
Last Quarter
Oct 27
New
Nov 4
First Quarter

Hourly Weather History & Observations

Time (PDT) Temp. Windchill Dew Point Humidity Pressure Visibility Wind Dir Wind Speed Gust Speed Precip Events Conditions
12:53 AM 62.1 °F - 55.0 °F 78% 29.81 in 10.0 mi NNW 11.5 mph - N/A   Overcast
1:53 AM 62.1 °F - 52.0 °F 70% 29.81 in 10.0 mi West 25.3 mph 31.1 mph N/A   Overcast
2:53 AM 60.1 °F - 48.9 °F 67% 29.82 in 10.0 mi NW 16.1 mph - 0.00 in   Overcast
3:53 AM 59.0 °F - 46.9 °F 64% 29.81 in 10.0 mi NW 12.7 mph - N/A   Overcast
4:53 AM 59.0 °F - 46.9 °F 64% 29.82 in 10.0 mi WNW 12.7 mph - N/A   Overcast
5:53 AM 57.0 °F - 44.1 °F 62% 29.85 in 10.0 mi WNW 20.7 mph 31.1 mph N/A   Overcast
6:53 AM 55.0 °F - 41.0 °F 59% 29.88 in 10.0 mi West 15.0 mph 28.8 mph N/A   Overcast
7:53 AM 54.0 °F - 36.0 °F 51% 29.89 in 10.0 mi WNW 15.0 mph - N/A   Mostly Cloudy
8:53 AM 55.9 °F - 37.0 °F 49% 29.90 in 10.0 mi West 15.0 mph - N/A   Clear
9:53 AM 57.9 °F - 37.0 °F 46% 29.90 in 10.0 mi WNW 19.6 mph - N/A   Clear
10:53 AM 55.9 °F - 39.0 °F 53% 29.91 in 10.0 mi NW 23.0 mph 28.8 mph N/A   Overcast
11:53 AM 53.1 °F - 39.9 °F 61% 29.91 in 10.0 mi NW 18.4 mph 26.5 mph N/A   Overcast
12:53 PM 57.0 °F - 39.9 °F 53% 29.89 in 10.0 mi NW 9.2 mph - N/A   Mostly Cloudy
1:53 PM 54.0 °F - 41.0 °F 62% 29.91 in 10.0 mi West 17.3 mph 28.8 mph 0.00 in   Overcast
2:53 PM 55.9 °F - 37.0 °F 49% 29.91 in 10.0 mi WSW 11.5 mph 17.3 mph N/A   Overcast
3:53 PM 54.0 °F - 35.1 °F 49% 29.92 in 10.0 mi West 16.1 mph 24.2 mph 0.00 in   Partly Cloudy
4:53 PM 54.0 °F - 34.0 °F 47% 29.94 in 10.0 mi West 13.8 mph 26.5 mph N/A   Clear
5:53 PM 48.0 °F - 37.0 °F 66% 29.98 in 10.0 mi WNW 8.1 mph - 0.00 in   Overcast
6:53 PM 46.9 °F - 35.1 °F 63% 29.99 in 10.0 mi West 12.7 mph - N/A   Partly Cloudy
7:53 PM 46.0 °F 39.3 °F 35.1 °F 66% 30.01 in 10.0 mi West 16.1 mph - N/A   Partly Cloudy
8:53 PM 45.0 °F - 33.1 °F 63% 30.02 in 10.0 mi Calm Calm - N/A   Clear
9:53 PM 44.1 °F 42.5 °F 33.1 °F 65% 30.04 in 10.0 mi SSW 3.5 mph - N/A   Clear
10:53 PM 45.0 °F 38.5 °F 34.0 °F 65% 30.05 in 10.0 mi WNW 13.8 mph - N/A   Partly Cloudy
11:53 PM 43.0 °F 38.2 °F 34.0 °F 71% 30.08 in 10.0 mi NW 8.1 mph - N/A   Clear